Vorticity
9 9 10 11 11 11 11 10 10 10 10 9 8 9 9 9 9 9 8 8 8 7 7 7 7 7 6 7 7 7 7 8 8 8 9 9 9 9 9 9 10 11 11 11 11 11 10 10 10 12 14 14 12 10 9 7 8 9 11 12 12 12 11 11 10 8 7 5 4
9 9 10 11 11 11 11 10 10 10 10 10 9 9 9 10 9 9 8 8 7 7 6 7 7 7 7 7 7 7 7 8 8 8 9 9 9 9 9 9 10 11 11 11 11 11 10 10 10 11 13 15 14 12 10 8 7 8 10 12 12 11 10 10 9 9 8 7 6
8 9 10 11 11 11 11 10 10 10 10 9 9 9 9 10 9 9 8 7 7 7 7 7 7 7 7 7 7 7 8 8 8 8 9 9 9 9 9 9 10 11 11 12 11 11 10 10 10 11 12 14 15 14 11 9 8 8 9 11 10 10 9 9 9 9 9 9 9
9 10 10 11 11 12 11 10 10 10 10 9 9 9 10 10 10 9 8 7 7 7 7 7 7 7 7 7 7 7 8 8 8 9 9 9 9 9 9 9 10 11 11 12 11 11 11 10 10 11 12 13 15 14 13 10 9 9 10 10 10 9 8 8 8 8 9 10 12
10 10 11 11 11 11 11 11 10 10 9 9 9 9 10 10 9 8 8 7 7 7 7 7 7 7 7 7 7 7 8 8 9 9 9 9 9 9 9 10 10 11 11 12 12 11 10 10 10 11 12 13 15 15 14 11 10 10 10 11 10 9 8 7 7 8 8 10 12
9 10 10 11 11 11 11 12 11 10 9 9 9 9 9 10 9 9 8 8 7 7 7 7 7 7 7 7 8 8 8 8 9 9 9 9 9 9 9 10 10 11 11 12 11 11 10 9 10 10 12 13 15 16 15 13 11 10 10 11 11 10 8 7 7 7 8 9 11
9 9 10 11 11 11 11 11 11 10 9 9 9 9 9 9 9 9 9 7 7 7 7 7 7 7 7 8 8 8 8 8 9 9 9 9 9 9 10 10 10 11 11 11 11 11 10 9 9 10 11 12 14 16 16 15 13 11 11 12 12 11 9 8 7 7 7 8 9
9 10 10 10 11 11 11 11 10 10 9 10 10 10 9 9 9 9 8 7 7 7 7 7 7 7 7 8 8 8 8 8 9 9 9 9 9 10 10 10 10 11 11 11 11 11 10 9 9 9 10 11 13 15 16 16 14 14 13 12 11 11 10 9 8 7 7 7 7
10 10 10 10 11 11 11 11 10 10 10 10 10 10 9 9 9 8 8 8 7 7 7 7 7 7 8 8 8 8 8 8 9 9 9 9 10 10 10 10 10 11 11 11 11 10 10 9 8 9 9 10 12 14 16 16 16 15 15 13 11 11 11 10 9 8 7 6 6
10 9 10 11 12 12 11 11 11 11 10 9 9 10 10 10 9 9 8 7 6 6 7 7 7 7 8 8 8 8 8 8 9 9 9 10 10 10 10 10 10 10 11 11 11 10 10 9 8 8 8 10 11 13 15 16 16 16 16 15 12 11 10 11 10 9 8 7 6
9 9 10 11 11 11 11 11 11 11 10 9 9 9 10 10 10 9 8 7 7 7 7 7 7 8 8 8 8 8 8 8 9 9 9 10 10 10 10 10 10 10 10 11 11 10 10 9 8 8 8 9 10 12 13 15 16 17 17 16 14 12 11 11 11 11 9 8 7
9 9 10 11 11 11 11 11 11 10 10 10 9 9 10 10 9 8 7 7 7 7 7 7 7 8 8 8 8 8 8 8 9 9 10 10 10 10 10 10 10 10 10 11 10 10 10 9 8 7 7 8 9 11 12 13 15 16 17 17 16 14 12 11 12 12 11 9 8
9 9 10 11 11 11 11 11 11 10 10 10 10 9 9 9 9 8 8 8 7 7 7 7 8 8 8 8 8 8 8 9 9 9 10 10 10 10 10 10 10 10 10 11 10 10 10 9 8 8 7 7 9 10 11 12 14 16 17 17 17 16 15 14 13 13 12 11 10
10 10 11 11 11 11 11 10 10 11 10 10 10 9 9 9 9 9 9 8 7 7 7 7 8 8 8 8 8 8 8 9 9 9 10 10 10 10 10 10 10 10 10 11 10 10 10 9 9 8 7 7 8 10 11 13 14 15 16 17 18 18 18 17 15 14 13 13 12
11 11 11 10 11 11 11 10 10 10 10 10 10 9 9 9 9 9 9 8 7 7 7 7 8 8 8 8 8 8 9 9 9 10 10 10 10 10 10 10 10 10 10 10 11 10 10 9 9 8 8 7 8 10 11 13 14 15 16 17 18 18 18 17 15 14 14 14 13
11 11 11 10 11 11 11 10 10 10 10 10 9 9 9 9 9 9 9 8 7 7 7 7 8 8 8 8 8 8 9 9 9 10 10 10 10 10 10 10 10 10 10 10 10 10 10 10 9 8 8 7 8 9 11 13 14 16 17 18 18 18 17 15 14 13 13 14 15
12 11 11 11 11 11 11 10 9 10 10 10 9 9 9 8 9 10 10 8 7 7 7 8 8 8 8 8 8 9 9 9 9 10 10 10 10 10 10 10 10 10 10 10 10 10 10 10 9 9 8 7 8 9 11 12 14 16 18 18 18 16 14 12 11 11 11 13 15
12 11 11 11 11 11 10 9 9 10 10 10 9 9 8 9 9 9 9 9 7 7 7 7 8 8 8 8 8 9 9 9 9 10 10 10 10 10 10 10 10 10 10 10 10 10 10 10 9 9 8 8 8 9 11 13 15 17 18 18 16 13 11 10 10 10 10 12 14
12 11 11 11 11 11 10 9 9 9 10 10 9 8 8 9 9 9 9 9 8 7 7 7 8 8 8 8 8 9 9 9 9 10 10 10 10 10 10 10 10 10 10 10 10 10 10 10 9 9 8 7 8 9 11 13 15 17 17 15 12 9 7 7 8 9 10 11 12
12 11 11 11 11 11 11 10 9 9 9 9 9 8 9 9 9 9 9 8 8 7 7 7 8 8 8 8 8 9 9 9 9 10 10 9 10 10 10 10 10 10 10 10 11 11 10 10 9 8 8 7 8 10 11 13 15 15 14 11 7 5 4 5 6 8 10 12 12
13 11 10 11 12 12 11 9 8 8 9 9 9 8 8 9 9 10 9 8 7 7 7 8 8 8 8 8 9 9 9 9 9 9 9 9 10 10 10 10 10 10 10 11 11 11 10 10 9 8 8 8 9 10 11 12 12 11 9 6 4 3 3 4 5 7 9 11 12
12 11 10 11 13 13 11 9 8 8 9 9 9 8 8 9 9 9 9 8 7 7 7 8 8 8 8 8 9 9 9 9 9 9 9 10 10 10 10 10 10 10 11 11 11 11 10 10 9 8 8 8 8 9 10 9 8 7 5 4 2 2 3 4 6 7 9 10 12
11 10 12 13 14 13 11 8 8 8 9 9 8 8 9 9 9 9 8 8 8 8 7 7 8 8 8 8 9 9 9 9 9 9 9 9 9 9 10 10 10 11 11 11 11 11 10 10 9 8 8 7 8 8 8 7 6 5 4 3 2 3 4 6 7 9 10 11 11
11 11 13 14 14 13 10 7 7 8 9 9 8 8 9 9 9 9 9 8 8 8 7 7 8 8 8 8 9 9 9 9 9 9 9 9 9 9 10 10 11 11 11 11 11 11 10 9 8 8 8 7 8 8 8 8 7 6 5 3 3 3 5 7 9 11 12 13 13
12 13 14 16 15 12 9 7 8 9 9 9 8 8 9 9 9 9 9 8 8 7 7 7 7 8 8 8 9 9 9 9 9 9 9 9 9 9 10 10 11 11 11 11 11 11 10 10 9 8 7 8 8 9 10 10 8 7 5 4 3 4 5 7 9 12 14 15 14
13 14 16 17 14 11 9 7 7 8 8 8 8 9 9 9 10 10 9 9 8 7 7 7 7 8 8 8 8 8 9 9 9 9 9 9 9 9 10 10 11 11 11 11 11 11 10 10 9 8 7 7 8 9 9 10 8 6 5 4 4 5 6 6 8 10 12 13 13
15 16 16 16 14 11 8 6 6 8 9 9 9 9 9 10 10 10 9 9 8 7 7 7 7 8 8 8 8 8 8 9 9 9 9 9 9 9 9 10 10 11 11 11 11 11 11 10 9 8 7 7 7 8 9 9 7 6 5 4 5 6 6 7 8 9 9 9 9
16 16 16 15 14 10 7 5 7 9 10 9 9 9 9 10 11 10 10 9 7 7 7 7 7 7 8 8 8 8 8 8 9 9 9 9 9 9 9 9 10 11 11 12 12 11 11 10 9 8 7 7 7 8 8 8 7 6 6 6 6 7 7 8 7 7 6 5 7
16 15 15 15 13 9 6 6 8 9 9 9 9 10 10 11 11 11 10 8 7 7 7 7 7 7 8 9 8 8 8 9 9 9 9 9 9 9 9 9 10 11 11 12 12 11 11 10 9 8 7 7 7 7 8 8 6 6 6 6 7 7 7 6 5 5 5 6 9
16 16 15 14 10 8 7 8 7 7 7 9 10 11 11 12 11 11 10 8 8 7 7 6 7 7 8 8 7 8 8 8 9 9 9 9 9 9 9 9 10 10 11 12 12 11 11 10 8 7 7 6 6 7 7 7 6 5 6 7 8 7 6 4 4 5 7 10 12
16 16 15 13 10 8 7 7 6 7 8 10 11 12 12 12 12 11 10 9 8 7 6 6 7 8 8 7 7 8 8 8 9 9 9 9 9 8 8 8 9 10 11 12 12 12 11 10 8 7 7 6 6 6 6 6 5 6 6 8 9 8 6 5 7 9 12 13 13
16 16 15 13 11 9 7 6 6 7 9 10 12 13 13 13 12 11 10 9 7 7 6 7 7 7 7 7 8 8 8 8 8 9 9 9 8 8 8 8 8 9 10 12 12 12 11 10 9 8 7 6 5 5 5 5 5 5 7 11 11 10 9 9 11 12 12 12 12
16 16 16 13 10 8 7 6 7 8 10 11 12 13 13 12 12 11 10 8 7 7 6 7 7 7 7 7 7 7 8 8 8 8 8 9 8 8 8 8 8 9 10 11 12 12 11 10 9 8 7 6 5 5 5 5 4 5 8 12 13 13 12 12 12 11 11 11 12
14 16 15 13 10 8 7 7 8 9 10 12 13 13 13 12 12 11 10 8 7 7 7 7 7 7 7 7 7 7 7 7 8 8 8 8 8 8 8 8 8 8 9 11 12 12 12 10 9 8 7 6 5 5 4 4 3 5 8 13 14 14 13 13 11 10 10 11 12
13 15 15 13 11 9 8 8 8 10 11 13 13 13 13 13 12 11 9 8 7 7 7 7 7 7 7 7 7 7 7 7 8 8 8 8 8 8 8 8 8 8 9 10 11 12 12 11 10 9 8 7 6 5 4 4 3 5 8 12 14 14 14 13 11 10 10 11 13
12 15 15 14 13 11 10 9 9 11 12 13 13 12 12 13 12 11 9 8 7 7 6 6 6 7 7 7 7 7 7 7 7 7 8 8 8 8 8 8 8 8 8 9 11 11 12 11 10 9 9 7 6 5 5 4 3 5 8 11 13 13 13 12 11 10 11 13 14
12 14 16 16 15 14 12 10 10 11 13 13 12 12 12 12 12 11 10 8 7 7 6 6 6 7 7 7 7 7 7 7 7 7 7 8 8 8 8 8 8 8 8 9 10 11 11 11 10 10 9 8 7 6 5 5 4 5 8 11 12 12 12 11 11 11 12 14 15
11 13 16 20 20 18 15 12 12 12 13 13 12 11 11 12 12 11 9 8 7 7 6 6 6 7 7 7 7 6 6 6 7 7 7 8 8 8 8 8 8 8 8 8 9 10 11 11 11 10 9 8 7 6 6 5 4 5 7 10 11 12 11 11 11 11 13 15 17
10 13 18 24 24 21 17 14 13 12 12 11 11 11 12 13 12 11 9 8 7 7 6 6 6 6 7 7 7 6 6 6 7 7 7 8 8 8 8 8 8 7 8 8 9 10 11 11 11 10 10 9 8 7 6 6 5 5 6 9 10 11 11 11 10 11 13 15 18
11 15 20 26 26 23 18 14 12 11 11 11 10 11 12 12 11 10 9 8 7 6 6 6 6 6 6 7 7 6 6 6 6 7 7 8 8 8 8 8 8 8 8 8 8 9 10 11 11 10 10 10 9 8 7 6 5 5 6 8 9 10 11 10 10 11 13 15 19
14 18 23 28 27 23 18 12 10 9 10 11 11 11 11 12 11 11 10 8 7 6 6 6 6 6 6 7 7 7 6 6 6 7 7 8 8 8 8 8 8 8 8 8 8 9 9 10 10 10 10 10 9 9 8 6 5 5 5 6 8 9 10 10 10 11 12 15 19
Height
3065 3064 3062 3060 3059 3057 3055 3054 3052 3050 3049 3047 3045 3044 3042 3041 3040 3038 3036 3034 3033 3031 3029 3027 3025 3024 3021 3020 3017 3015 3013 3011 3009 3007 3005 3002 3000 2998 2995 2993 2990 2988 2986 2983 2981 2978 2976 2974 2972 2970 2967 2965 2963 2961 2959 2957 2955 2953 2950 2949 2947 2945 2943 2942 2940 2938 2936 2934 2932
3063 3061 3060 3058 3056 3055 3053 3052 3050 3048 3046 3045 3043 3042 3040 3039 3037 3036 3034 3032 3031 3029 3027 3025 3024 3022 3020 3018 3016 3014 3011 3009 3007 3005 3003 3000 2998 2996 2994 2991 2989 2986 2984 2982 2980 2977 2975 2973 2970 2968 2966 2964 2962 2960 2957 2955 2953 2951 2949 2947 2945 2944 2942 2940 2939 2937 2935 2933 2930
3061 3059 3057 3056 3054 3053 3051 3050 3048 3046 3045 3043 3041 3040 3038 3037 3035 3034 3032 3030 3029 3027 3025 3024 3022 3020 3018 3016 3014 3012 3010 3008 3005 3003 3001 2999 2996 2994 2992 2990 2987 2985 2983 2980 2978 2976 2974 2971 2969 2967 2965 2963 2960 2958 2956 2954 2952 2950 2948 2946 2945 2943 2941 2939 2937 2935 2933 2931 2929
3059 3057 3055 3054 3052 3051 3049 3047 3046 3044 3042 3041 3039 3038 3036 3035 3033 3032 3030 3029 3027 3025 3024 3022 3020 3018 3016 3014 3012 3010 3008 3006 3004 3001 2999 2997 2995 2993 2990 2988 2986 2984 2981 2979 2977 2974 2972 2970 2968 2966 2964 2961 2959 2957 2955 2953 2951 2949 2947 2945 2943 2941 2940 2938 2936 2934 2932 2930 2928
3057 3055 3053 3052 3050 3049 3047 3045 3044 3042 3040 3039 3037 3036 3034 3033 3031 3030 3028 3027 3025 3023 3022 3020 3018 3016 3014 3012 3010 3008 3006 3004 3002 3000 2998 2995 2993 2991 2989 2986 2984 2982 2980 2978 2975 2973 2971 2969 2966 2964 2962 2960 2958 2956 2954 2952 2950 2948 2946 2944 2942 2940 2938 2936 2935 2932 2930 2929 2927
3054 3053 3051 3050 3048 3046 3045 3043 3041 3040 3038 3037 3035 3034 3032 3031 3030 3028 3026 3025 3023 3021 3020 3018 3016 3015 3012 3010 3009 3006 3004 3002 3000 2998 2996 2994 2992 2990 2987 2985 2983 2980 2978 2976 2974 2972 2970 2967 2965 2963 2961 2959 2956 2954 2952 2950 2948 2946 2945 2943 2941 2939 2937 2935 2933 2931 2929 2928 2925
3052 3050 3049 3047 3045 3044 3042 3041 3039 3038 3036 3035 3033 3032 3030 3029 3027 3026 3025 3023 3021 3020 3018 3016 3014 3012 3010 3009 3007 3005 3003 3000 2998 2996 2994 2992 2990 2988 2986 2984 2981 2979 2977 2975 2972 2970 2968 2966 2964 2962 2960 2957 2955 2953 2951 2949 2947 2945 2943 2941 2940 2938 2936 2934 2932 2930 2928 2926 2925
3050 3048 3047 3045 3043 3042 3040 3039 3037 3035 3034 3032 3031 3030 3028 3027 3025 3024 3022 3021 3019 3018 3016 3014 3012 3010 3009 3007 3005 3003 3001 2999 2997 2995 2993 2990 2988 2986 2984 2982 2980 2978 2975 2973 2971 2969 2967 2965 2963 2961 2959 2956 2954 2952 2950 2947 2945 2943 2942 2940 2938 2937 2935 2933 2931 2929 2927 2925 2924
3048 3046 3044 3043 3041 3040 3038 3036 3035 3033 3032 3030 3029 3027 3026 3025 3023 3022 3020 3019 3017 3015 3014 3012 3010 3009 3007 3005 3003 3001 2999 2997 2995 2993 2991 2989 2987 2985 2983 2980 2978 2976 2974 2972 2970 2968 2966 2964 2962 2960 2957 2955 2953 2950 2949 2946 2944 2942 2940 2939 2937 2935 2933 2931 2930 2928 2926 2924 2922
3045 3044 3042 3040 3039 3037 3035 3034 3033 3031 3030 3028 3027 3025 3024 3023 3021 3020 3018 3017 3015 3013 3012 3010 3008 3007 3005 3003 3001 3000 2998 2996 2994 2992 2990 2987 2985 2983 2981 2979 2977 2975 2973 2970 2968 2966 2965 2962 2960 2958 2956 2954 2952 2950 2947 2945 2943 2941 2939 2937 2935 2934 2932 2930 2929 2926 2925 2923 2921
3043 3042 3040 3038 3036 3035 3033 3032 3030 3029 3028 3026 3025 3023 3022 3020 3019 3018 3016 3015 3013 3011 3010 3008 3006 3005 3003 3001 3000 2998 2996 2994 2992 2990 2988 2986 2984 2982 2980 2978 2975 2973 2971 2969 2967 2965 2963 2961 2959 2957 2955 2953 2950 2948 2946 2944 2942 2940 2938 2936 2934 2932 2930 2929 2927 2925 2924 2922 2920
3041 3039 3038 3036 3034 3033 3031 3030 3028 3027 3025 3024 3023 3021 3020 3018 3017 3016 3014 3013 3011 3010 3008 3006 3005 3003 3001 3000 2998 2996 2994 2992 2990 2989 2986 2984 2982 2980 2978 2976 2974 2972 2970 2968 2966 2964 2962 2960 2958 2956 2954 2952 2949 2947 2945 2942 2940 2938 2936 2935 2933 2931 2929 2928 2926 2925 2923 2921 2919
3039 3037 3035 3034 3032 3030 3029 3027 3026 3025 3023 3022 3020 3019 3018 3016 3015 3014 3012 3011 3010 3008 3006 3005 3003 3001 3000 2998 2996 2995 2993 2991 2989 2987 2985 2983 2981 2979 2977 2975 2972 2970 2969 2966 2965 2962 2960 2959 2957 2955 2953 2950 2948 2946 2944 2941 2939 2937 2935 2933 2931 2930 2928 2926 2925 2923 2922 2920 2918
3036 3035 3033 3031 3030 3028 3027 3025 3024 3023 3021 3020 3018 3017 3016 3014 3013 3012 3010 3009 3008 3006 3004 3003 3001 3000 2998 2996 2995 2993 2991 2989 2987 2985 2983 2981 2979 2977 2975 2973 2971 2969 2967 2965 2963 2961 2959 2957 2955 2953 2951 2949 2947 2945 2942 2940 2938 2936 2934 2932 2930 2929 2927 2925 2924 2922 2920 2919 2917
3034 3032 3030 3029 3027 3026 3025 3023 3022 3020 3019 3018 3016 3015 3014 3012 3011 3010 3009 3007 3006 3004 3003 3001 2999 2998 2996 2995 2993 2991 2990 2988 2985 2984 2982 2980 2978 2976 2974 2972 2970 2968 2966 2964 2962 2960 2958 2956 2954 2952 2950 2948 2945 2943 2941 2939 2937 2935 2933 2931 2929 2927 2926 2924 2922 2920 2919 2917 2915
3031 3030 3028 3026 3025 3024 3022 3021 3020 3018 3017 3016 3015 3013 3012 3010 3009 3008 3007 3005 3004 3002 3001 2999 2998 2996 2994 2993 2991 2990 2988 2986 2984 2982 2980 2978 2976 2974 2972 2970 2968 2966 2964 2963 2961 2959 2957 2955 2953 2950 2949 2946 2944 2942 2940 2938 2936 2934 2932 2930 2928 2926 2924 2922 2921 2919 2917 2915 2914
3029 3027 3026 3024 3023 3021 3020 3019 3017 3016 3015 3014 3012 3011 3010 3009 3007 3006 3005 3004 3002 3001 2999 2998 2996 2994 2993 2991 2989 2988 2986 2984 2982 2980 2979 2976 2975 2973 2971 2969 2967 2965 2963 2961 2960 2958 2955 2953 2951 2949 2947 2945 2943 2941 2939 2937 2935 2933 2931 2929 2927 2925 2923 2921 2919 2917 2915 2914 2912
3027 3025 3023 3022 3020 3019 3018 3016 3015 3014 3013 3012 3010 3009 3008 3007 3005 3004 3003 3002 3000 2999 2998 2996 2994 2993 2991 2990 2988 2986 2984 2983 2981 2979 2977 2975 2973 2971 2969 2967 2965 2964 2962 2960 2958 2956 2954 2952 2950 2948 2946 2944 2942 2940 2938 2936 2934 2932 2930 2928 2926 2924 2922 2920 2918 2916 2914 2912 2910
3024 3023 3021 3020 3018 3017 3015 3014 3013 3012 3011 3010 3009 3007 3006 3005 3004 3003 3001 3000 2999 2997 2996 2994 2993 2991 2990 2988 2986 2985 2983 2981 2979 2977 2975 2974 2971 2970 2968 2966 2964 2962 2960 2958 2957 2955 2953 2951 2949 2947 2945 2943 2941 2939 2936 2934 2932 2930 2929 2927 2925 2923 2921 2919 2917 2915 2913 2911 2909
3022 3020 3019 3017 3016 3015 3013 3012 3011 3010 3009 3008 3007 3005 3004 3003 3002 3001 3000 2998 2997 2995 2994 2993 2991 2990 2988 2986 2985 2983 2981 2980 2978 2976 2974 2972 2970 2968 2966 2965 2963 2961 2959 2957 2955 2953 2951 2950 2948 2945 2944 2942 2940 2938 2935 2933 2931 2930 2928 2926 2924 2922 2920 2918 2916 2914 2912 2910 2907
3020 3018 3016 3015 3014 3012 3011 3010 3009 3008 3007 3005 3005 3003 3002 3001 3000 2999 2998 2996 2995 2994 2992 2991 2990 2988 2986 2985 2983 2982 2980 2978 2976 2974 2972 2970 2969 2967 2965 2963 2961 2959 2957 2955 2954 2952 2950 2949 2946 2945 2943 2941 2939 2936 2934 2932 2930 2929 2927 2925 2923 2921 2919 2917 2915 2913 2911 2909 2906
3017 3015 3014 3013 3011 3010 3009 3008 3006 3005 3005 3003 3002 3001 3000 2999 2998 2997 2996 2995 2993 2992 2991 2989 2988 2986 2985 2983 2982 2980 2979 2976 2975 2973 2971 2969 2967 2965 2963 2961 2960 2958 2956 2954 2952 2951 2949 2947 2945 2944 2942 2940 2938 2935 2934 2931 2930 2928 2926 2924 2922 2920 2918 2916 2914 2912 2910 2907 2905
3015 3013 3011 3010 3009 3008 3007 3005 3004 3003 3002 3001 3000 2999 2998 2997 2996 2995 2994 2993 2992 2990 2989 2988 2986 2985 2983 2982 2980 2979 2977 2975 2973 2971 2969 2968 2966 2964 2962 2960 2958 2956 2955 2953 2951 2950 2948 2946 2944 2943 2941 2939 2937 2935 2933 2931 2929 2927 2925 2923 2921 2919 2917 2915 2913 2910 2908 2906 2904
3012 3010 3009 3008 3007 3005 3005 3003 3002 3001 3000 2999 2998 2997 2996 2995 2994 2993 2992 2991 2990 2989 2987 2986 2985 2983 2982 2980 2979 2977 2976 2974 2972 2970 2968 2966 2964 2962 2960 2959 2957 2955 2953 2952 2950 2948 2947 2945 2943 2941 2940 2938 2936 2934 2931 2929 2927 2925 2923 2921 2919 2917 2915 2913 2911 2909 2907 2905 2902
3010 3008 3007 3005 3004 3003 3002 3001 3000 2998 2997 2996 2995 2995 2994 2993 2992 2991 2990 2989 2988 2987 2986 2984 2983 2981 2980 2979 2977 2976 2974 2973 2971 2969 2967 2965 2963 2961 2959 2957 2955 2954 2952 2950 2949 2947 2945 2944 2942 2940 2938 2936 2934 2931 2930 2927 2925 2923 2921 2919 2917 2915 2913 2910 2909 2907 2905 2902 2900
3007 3005 3004 3003 3002 3001 3000 2998 2997 2996 2995 2994 2993 2992 2991 2990 2990 2989 2988 2988 2986 2985 2984 2983 2981 2980 2979 2977 2976 2975 2973 2971 2970 2968 2966 2964 2962 2960 2958 2956 2955 2953 2951 2950 2948 2946 2945 2943 2940 2938 2936 2934 2932 2930 2928 2926 2924 2922 2920 2918 2915 2913 2910 2908 2905 2904 2902 2900 2898
3005 3003 3002 3001 3000 2998 2997 2995 2994 2993 2992 2991 2990 2990 2989 2988 2987 2987 2986 2985 2985 2984 2982 2981 2980 2979 2977 2976 2975 2973 2971 2970 2968 2966 2964 2963 2960 2959 2957 2955 2953 2951 2950 2949 2947 2945 2944 2942 2940 2937 2935 2933 2930 2928 2926 2924 2923 2921 2919 2916 2914 2911 2909 2906 2904 2901 2900 2898 2896
3002 3000 2999 2998 2997 2995 2994 2992 2991 2990 2990 2989 2988 2987 2986 2986 2985 2985 2984 2984 2983 2982 2981 2980 2978 2977 2976 2975 2973 2972 2970 2968 2966 2965 2963 2961 2959 2958 2956 2954 2952 2950 2949 2947 2946 2944 2942 2940 2939 2936 2934 2931 2929 2927 2925 2923 2921 2919 2917 2915 2912 2910 2907 2905 2902 2900 2898 2896 2894
2999 2998 2996 2995 2994 2993 2991 2990 2988 2987 2987 2986 2985 2985 2984 2984 2983 2983 2982 2981 2981 2980 2979 2978 2977 2975 2974 2973 2972 2970 2969 2967 2965 2963 2962 2960 2958 2956 2955 2953 2951 2950 2948 2946 2945 2943 2941 2940 2937 2935 2933 2931 2928 2926 2924 2922 2920 2918 2915 2913 2911 2908 2906 2904 2902 2900 2897 2895 2893
2996 2995 2993 2992 2991 2990 2988 2987 2985 2985 2984 2983 2983 2982 2982 2981 2981 2980 2980 2979 2979 2978 2977 2976 2975 2974 2973 2971 2970 2969 2967 2965 2964 2962 2960 2959 2957 2955 2953 2952 2950 2948 2947 2945 2944 2942 2940 2938 2936 2934 2932 2930 2927 2925 2923 2920 2919 2916 2914 2912 2910 2907 2905 2903 2901 2899 2897 2895 2892
2993 2991 2990 2989 2987 2986 2985 2984 2982 2982 2981 2981 2980 2980 2980 2979 2979 2978 2978 2977 2977 2976 2975 2975 2974 2972 2971 2970 2969 2967 2966 2964 2962 2961 2959 2957 2956 2954 2952 2950 2949 2947 2945 2944 2942 2941 2939 2937 2935 2933 2931 2929 2926 2924 2922 2920 2918 2916 2914 2911 2909 2907 2905 2903 2900 2898 2896 2894 2891
2990 2988 2986 2985 2984 2983 2981 2980 2980 2979 2978 2978 2978 2978 2977 2977 2976 2976 2975 2975 2975 2974 2974 2973 2972 2971 2970 2969 2967 2966 2965 2963 2961 2960 2958 2956 2955 2953 2951 2949 2948 2946 2945 2943 2941 2940 2938 2936 2934 2932 2930 2928 2926 2923 2921 2919 2917 2915 2913 2911 2908 2906 2904 2902 2900 2897 2895 2892 2890
2986 2984 2983 2981 2980 2979 2978 2977 2976 2976 2976 2976 2975 2975 2975 2975 2974 2974 2973 2973 2973 2972 2972 2971 2970 2969 2968 2967 2966 2964 2963 2961 2960 2958 2957 2955 2954 2952 2950 2948 2946 2945 2943 2942 2940 2939 2937 2935 2933 2931 2929 2927 2925 2922 2920 2918 2916 2915 2912 2910 2908 2905 2903 2901 2899 2897 2894 2891 2889
2982 2980 2979 2978 2977 2976 2975 2974 2974 2973 2973 2973 2973 2973 2973 2972 2972 2971 2971 2971 2971 2970 2970 2969 2968 2967 2966 2965 2964 2963 2961 2960 2959 2957 2955 2954 2952 2950 2949 2947 2945 2943 2942 2940 2939 2937 2936 2934 2932 2930 2928 2926 2924 2921 2919 2917 2916 2914 2911 2909 2907 2905 2903 2900 2898 2895 2893 2890 2888
2979 2977 2975 2974 2974 2973 2972 2971 2971 2971 2971 2971 2971 2970 2970 2970 2970 2969 2969 2969 2969 2969 2968 2968 2967 2966 2965 2964 2963 2962 2960 2959 2957 2956 2954 2953 2951 2950 2948 2946 2944 2942 2941 2939 2938 2936 2935 2933 2931 2929 2927 2925 2923 2920 2919 2916 2915 2913 2910 2908 2906 2904 2901 2900 2897 2895 2892 2890 2887
2975 2973 2972 2971 2970 2970 2969 2968 2968 2968 2968 2968 2968 2968 2968 2968 2967 2967 2967 2967 2967 2966 2966 2966 2965 2964 2963 2962 2961 2960 2959 2958 2956 2955 2953 2952 2950 2949 2947 2945 2943 2941 2940 2938 2937 2935 2934 2932 2930 2928 2926 2924 2922 2920 2918 2916 2914 2912 2910 2908 2905 2903 2901 2899 2896 2894 2892 2889 2886
2972 2970 2969 2968 2967 2967 2966 2966 2966 2966 2966 2966 2966 2966 2965 2965 2965 2965 2965 2965 2965 2965 2964 2964 2963 2962 2962 2961 2960 2959 2957 2956 2955 2954 2952 2950 2949 2947 2946 2944 2942 2940 2939 2937 2935 2934 2932 2931 2929 2927 2925 2923 2920 2919 2916 2915 2913 2911 2909 2907 2905 2902 2900 2898 2896 2893 2891 2888 2885
2969 2967 2966 2965 2965 2964 2964 2963 2963 2964 2964 2964 2964 2964 2963 2963 2963 2963 2963 2962 2962 2962 2962 2962 2961 2961 2960 2959 2958 2957 2956 2955 2954 2952 2951 2949 2948 2946 2945 2943 2941 2940 2938 2936 2935 2933 2931 2930 2928 2926 2924 2922 2920 2917 2915 2913 2911 2910 2908 2906 2904 2902 2900 2897 2895 2893 2890 2888 2885
2966 2965 2963 2963 2962 2961 2961 2961 2961 2961 2961 2961 2961 2961 2961 2961 2961 2960 2960 2960 2960 2960 2960 2960 2960 2959 2958 2957 2956 2955 2954 2953 2952 2950 2949 2948 2946 2945 2944 2942 2940 2939 2937 2935 2934 2933 2931 2929 2927 2925 2923 2921 2919 2916 2914 2912 2910 2909 2907 2905 2903 2901 2899 2897 2894 2892 2890 2887 2885
2964 2962 2961 2960 2960 2959 2959 2958 2959 2959 2959 2959 2959 2959 2959 2959 2959 2958 2958 2958 2958 2959 2959 2958 2958 2957 2956 2956 2955 2954 2952 2951 2950 2949 2948 2946 2945 2944 2942 2941 2940 2938 2936 2935 2933 2932 2930 2928 2926 2924 2922 2920 2918 2915 2913 2911 2910 2908 2907 2905 2902 2900 2898 2896 2894 2891 2889 2886 2884
2961 2960 2960 2959 2958 2957 2956 2956 2956 2956 2956 2956 2956 2957 2957 2957 2956 2956 2956 2956 2956 2956 2957 2956 2956 2955 2955 2954 2953 2952 2951 2950 2948 2947 2946 2945 2944 2942 2941 2940 2938 2937 2935 2934 2932 2931 2929 2927 2925 2923 2921 2919 2917 2915 2913 2910 2909 2907 2906 2904 2902 2900 2897 2895 2893 2890 2888 2885 2883